Location: Dallas
(32.7833°N, 96.8000°W)
Time: 12:36:02
(UTC-06:00)

Envisat - Pass Details

Date: 15 December 2021
Orbit: 764 x 766 km, 98.2° (Epoch: 28 January)

Event Time Altitude Azimuth Distance (km) Brightness Sun altitude
Rises 04:27:16 0° 28° (NNE) 3,234 6.5 -35.9°
Reaches altitude 10° 04:30:00 10° 42° (NE) 2,303 5.8 -35.3°
Maximum altitude 04:34:03 24° 96° (E) 1,548 5.1 -34.5°
Drops below altitude 10° 04:38:05 10° 149° (SSE) 2,291 5.8 -33.6°
Sets 04:40:48 0° 163° (SSE) 3,213 6.5 -33.1°
